Regional Weather Roundup
Issued by NWS Upton, NY

Current Version | Previous Version | Text Only | Print | Product List | Glossary On
Versions: 1 2 3 4 5 6 7 8 9 10 11 12 13 14 15 16 17 18 19 20 21 22 23 24 25 26 27 28 29 30 31 32 33 34 35 36 37 38 39 40 41 42 43 44 45 46 47 48 49
000
ASUS41 KOKX 110405
RWROKX

REGIONAL WEATHER ROUNDUP
NATIONAL WEATHER SERVICE NEW YORK NY
1200 AM EDT FRI JUL 11 2014

NOTE: "FAIR" INDICATES FEW OR NO CLOUDS BELOW 12,000 FEET WITH NO
SIGNIFICANT WEATHER AND/OR OBSTRUCTIONS TO VISIBILITY.

NYZ071-072-176-178-NJZ106-104-110500-
NEW YORK CITY METRO AREA


CITY           SKY/WX    TMP DP  RH WIND       PRES   REMARKS
CENTRAL PARK   CLOUDY    74  62  66 CALM      30.17R
LAGUARDIA APRT CLOUDY    75  61  61 S3        30.14R
KENNEDY INTL   CLOUDY    73  62  68 CALM      30.15R
NEWARK/LIBERTY CLOUDY    74  62  66 CALM      30.14R
BRNX BOT. GARD   N/A    N/A N/A N/A CALM      30.14S
TETERBORO      MOCLDY    75  64  68 CALM      30.13R
$$

NYZ177-179-078>081-110500-
LONG ISLAND NEW YORK

CITY           SKY/WX    TMP DP  RH WIND       PRES   REMARKS
FARMINGDALE    CLOUDY    71  62  73 CALM      30.14S
ISLIP          CLOUDY    71  62  73 CALM      30.13S
SHIRLEY        CLOUDY    68  64  87 CALM      30.14F
WESTHAMPTON    CLOUDY    66  63  90 CALM      30.16S
MONTAUK POINT    N/A     70  62  76 CALM      30.16R
$$

NYZ052-065-067-110500-
HUDSON VALLEY

CITY           SKY/WX    TMP DP  RH WIND       PRES   REMARKS
WHITE PLAINS   CLOUDY    70  63  78 CALM      30.15R
NEWBURGH       PTCLDY    70  61  73 NE7       30.18
MONTGOMERY     PTCLDY    67  63  87 CALM      30.16R
POUGHKEEPSIE   PTCLDY    67  63  87 CALM      30.15R
ALBANY         MOCLDY    62  53  72 S6        30.17S
$$

NJZ001-105-106-008-010-013-015-019>022-104-110500-
NEW JERSEY

CITY           SKY/WX    TMP DP  RH WIND       PRES   REMARKS
NEWARK/LIBERTY CLOUDY    74  62  66 CALM      30.14R
TETERBORO      MOCLDY    75  64  68 CALM      30.13R
CALDWELL       MOCLDY    69  68  96 CALM      30.15S FOG
MORRISTOWN     CLOUDY    70  66  88 CALM      30.15S FOG
SOMERVILLE     CLOUDY    68  64  87 NW6       30.13R
LINDEN         MOCLDY    75  61  61 CALM      30.15S
SUSSEX         PTCLDY    68  64  87 CALM      30.16R
ANDOVER          N/A     65  64  97 CALM      30.17R
TRENTON        CLOUDY    70  62  76 NE3       30.13S
MILLVILLE      CLOUDY    69  68  96 CALM      30.12F
ATLANTIC CITY  CLOUDY    68  66  93 CALM      30.12S
WRIGHTSTOWN    CLOUDY    69  63  81 NE2       30.12S
TOMS RIVER     CLOUDY    70  66  88 CALM      30.14S
BELMAR         CLOUDY    70  64  83 CALM      30.14S
$$

PAZ047>061-062-071-110500-
EASTERN PENNSYLVANIA

CITY           SKY/WX    TMP DP  RH WIND       PRES   REMARKS
PHILADELPHIA   CLOUDY    74  63  68 E5        30.14S
ALLENTOWN      CLOUDY    71  64  78 SE5       30.15S
SCRANTON       PTCLDY    65  58  78 E5        30.18R
$$

CTZ002-004>006-009-010-012-RIZ004-006-007-MAZ004-011-015-110500-
SOUTHERN NEW ENGLAND
 IN CT

CITY           SKY/WX    TMP DP  RH WIND       PRES   REMARKS
BRADLEY INTL   MOCLDY    67  55  65 NE6       30.15R
HARTFORD       CLOUDY    73  55  53 CALM      30.15R
DANBURY        MOCLDY    68  62  81 CALM      30.17R
WTRBRY/OXFORD  CLOUDY    70  57  64 NE5       30.19R
BRIDGEPORT     CLOUDY    73  64  73 CALM      30.15R
MERIDEN        CLOUDY    68  64  87 CALM      30.15R
NEW HAVEN      CLOUDY    71  63  75 CALM      30.15R
CHESTER        FAIR      68  63  83 SW3       30.17R
GROTON         CLOUDY    66  63  90 CALM      30.14R
WILLIMANTIC    CLOUDY    67  63  87 CALM      30.16R

 IN RI

CITY           SKY/WX    TMP DP  RH WIND       PRES   REMARKS
PROVIDENCE     CLOUDY    70  63  78 SW5       30.15S
BLOCK ISLAND   CLOUDY    66  61  82 S5        30.15R
WESTERLY       CLOUDY    67  62  84 CALM      30.15S

 IN MA

CITY           SKY/WX    TMP DP  RH WIND       PRES   REMARKS
BOSTON         CLOUDY    67  61  81 SE5       30.14
WORCESTER      MOCLDY    70  50  49 N5        30.18S
WESTFIELD      MOCLDY    66  55  67 VRB3      30.16R
PROVINCETOWN   MOCLDY    66  61  82 S6        30.15S
NANTUCKET      FOG       67  66  97 S3        30.15S VSB 3/4
$$

ANZ330-335-338-340-345-350-353-355-110500-
COASTAL MARINE OBSERVATIONS


STATION/POSITION TIME  SKY/WX   TEMP    WIND        PRES    VSBY  WAVE
                                AIR SEA DIR/SP/G                  HT/PER
                 (UTC)          (F)     (DEG/KT/KT) (MB)    (MI)  (FT/S)
NY HARB ENTRANCE NOT AVBL
4S FIRE IS       0300               68                N/A           3/ 7
23SW MTP         0400            67 67              1020.2          3/ 7
HUDSON CANYON    0400            70 70  100/  6/  8 1019.8          3/ 6
EXECUTION ROCKS  0400            72 68  160/  2/  4   N/A
WESTERN LI SOUND 0400            72     130/  4/  4   N/A           0
CENTRAL LI SOUND 0300            71 71  200/  4/  4   N/A           0
EASTERN LI SOUND 0300            67 65   CALM  /  2   N/A
ROBBINS REEF     0400            72      40/  1/  2   N/A
$$


>>>>>>>>>>>>>>>>>>>>>>>>>>>> KEY <<<<<<<<<<<<<<<<<<<<<<<<<<<
>                                                          <
>     SKY/WX - SKY CONDITION/PRESENT WEATHER               <
>     TMP    - TEMPERATURE IN FAHRENHEIT                   <
>     DP     - DEWPOINT IN FAHRENHEIT                      <
>     RH     - RELATIVE HUMIDITY IN PERCENT                <
>     WIND   - DIRECTION AND SPEED IN MPH                  <
>     PRES   - MEAN SEA LEVEL PRESSURE IN INCHES OF HG     <
>     WCI    - WIND CHILL INDEX                            <
>     VSB    - VISIBILITY IN MILES                         <
>     HX     - HEAT INDEX                                  <
>     TC     - TEMPERATURE IN CELSIUS                      <
>     VRB    - VARIABLE WIND DIRECTION                     <
>                                                          <
>>>>>>>>>>>>>>>>>>>>>>>>>>>> KEY <<<<<<<<<<<<<<<<<<<<<<<<<<<




USA.gov is the U.S. government's official web portal to all federal, state and local government web resources and services.